Location: Unspecified
(0.0000°N, 0.0000°E)
Time: 00:32:36
(UTC+00:00)

SR - All Passes

Search period start: 16 September 2019 00:00
Search period end: 26 September 2019 00:00
Orbit: 576 x 879 km, 66.7° (Epoch: 15 September)

Date Brightness Start Highest point End Pass type
(mag) Time Alt. Az. Time Alt. Az. Time Alt. Az.
16 Sep - 04:19:06 10° SSE 04:22:35 25° ESE 04:26:08 10° NE visible
16 Sep - 06:02:40 10° W 06:04:22 12° WNW 06:06:05 10° NW daylight
16 Sep - 16:43:16 10° NNW 16:49:10 80° ENE 16:54:53 10° SSE daylight
17 Sep - 05:10:52 10° SW 05:14:44 35° WNW 05:18:46 10° N visible
17 Sep - 15:54:19 10° N 15:59:34 33° ENE 16:04:41 10° SE daylight
17 Sep - 17:37:20 10° WNW 17:41:24 19° WSW 17:45:23 10° SSW daylight
18 Sep - 04:21:00 10° SSW 04:25:11 71° ESE 04:29:34 10° NNE visible
18 Sep - 15:06:59 10° NE 15:09:55 14° ENE 15:12:49 10° E daylight
18 Sep - 16:46:15 10° NW 16:51:52 46° WSW 16:57:16 10° S daylight
19 Sep - 03:32:20 10° SSE 03:35:40 23° ESE 03:39:06 10° ENE visible
19 Sep - 05:15:20 10° W 05:17:27 13° WNW 05:19:37 10° NW visible
19 Sep - 15:56:25 10° NNW 16:02:18 75° ENE 16:07:58 10° SSE daylight
20 Sep - 04:23:52 10° SW 04:27:49 39° WNW 04:31:58 10° N visible
20 Sep - 15:07:34 10° N 15:12:42 31° ENE 15:17:41 10° SE daylight
20 Sep - 16:50:16 10° WNW 16:54:32 21° WSW 16:58:41 10° SSW daylight
21 Sep - 03:34:06 10° SSW 03:38:16 64° ESE 03:42:38 10° NNE visible
21 Sep - 14:20:32 10° NE 14:23:02 13° ENE 14:25:30 10° E daylight
21 Sep - 15:59:19 10° NW 16:05:00 50° WSW 16:10:27 10° S daylight
22 Sep - 02:45:35 10° SSE 02:48:46 21° ESE 02:52:03 10° ENE night (unlit)
22 Sep - 04:28:04 10° WSW 04:30:32 15° WNW 04:33:04 10° NNW visible
22 Sep - 15:09:34 10° NNW 15:15:26 69° ENE 15:21:04 10° SSE daylight
23 Sep - 03:36:53 10° SW 03:40:55 43° WNW 03:45:09 10° N visible
23 Sep - 14:20:50 10° NNE 14:25:49 29° ENE 14:30:40 10° SE daylight
23 Sep - 16:03:13 10° WNW 16:07:40 22° WSW 16:11:58 10° SSW daylight
24 Sep - 02:47:12 10° S 02:51:22 57° ESE 02:55:43 10° NNE night (unlit)
24 Sep - 13:34:12 10° NE 13:36:08 12° ENE 13:38:04 10° E daylight
24 Sep - 15:12:25 10° NNW 15:18:08 54° WSW 15:23:36 10° S daylight
25 Sep - 01:58:51 10° SSE 02:01:52 19° ESE 02:04:57 10° ENE night (unlit)
25 Sep - 03:40:52 10° WSW 03:43:37 17° WNW 03:46:26 10° NNW night (unlit)
25 Sep - 14:22:44 10° N 14:28:34 64° ENE 14:34:08 10° SSE daylight
